This is the latest recevied weather packets stored in our database for station/object WR9A-13. If no packets are shown the sender has not sent any weather packets the latest 10 day(s).
| Time | Temp. | Humidity | Pressure | Rain* | Wind** | Luminosity | Snow |
|---|---|---|---|---|---|---|---|
| 1788036923 | 28.89° C | 55% | 1020.2 hPa | 0 mm | - | - | - |
| 1788036620 | 28.89° C | 54% | 1020.3 hPa | 0 mm | - | - | - |
| 1788036328 | 28.89° C | 57% | 1020.3 hPa | 0 mm | - | - | - |
| 1788036026 | 28.89° C | 57% | 1020.4 hPa | 0 mm | - | - | - |
| 1788035714 | 28.89° C | 56% | 1020.4 hPa | 0 mm | - | - | - |
| 1788035414 | 28.33° C | 56% | 1020.4 hPa | 0 mm | - | - | - |
| 1788035120 | 28.33° C | 55% | 1020.4 hPa | 0 mm | - | - | - |
| 1788034817 | 28.33° C | 55% | 1020.5 hPa | 0 mm | - | - | - |
| 1788034525 | 28.33° C | 55% | 1020.6 hPa | 0 mm | - | - | - |
| 1788034222 | 28.33° C | 55% | 1020.7 hPa | 0 mm | - | - | - |
| 1788033930 | 28.33° C | 54% | 1020.7 hPa | 0 mm | - | - | - |
| 1788033622 | 28.33° C | 55% | 1020.7 hPa | 0 mm | - | - | - |
| 1788033339 | 28.89° C | 56% | 1020.6 hPa | 0 mm | - | - | - |
| 1788033027 | 28.89° C | 54% | 1020.8 hPa | 0 mm | - | - | - |
| 1788032726 | 28.89° C | 56% | 1020.8 hPa | 0 mm | - | - | - |
| 1788032433 | 28.89° C | 56% | 1020.8 hPa | 0 mm | - | - | - |
| 1788032130 | 28.89° C | 54% | 1020.9 hPa | 0 mm | - | - | - |
| 1788031817 | 28.89° C | 53% | 1020.9 hPa | 0 mm | - | - | - |
| 1788031534 | 29.44° C | 55% | 1020.9 hPa | 0 mm | - | - | - |
| 1788031224 | 29.44° C | 53% | 1021.1 hPa | 0 mm | - | - | - |
| 1788030940 | 29.44° C | 53% | 1021.1 hPa | 0 mm | - | - | - |
| 1788030628 | 29.44° C | 53% | 1021 hPa | 0 mm | - | - | - |
| 1788030326 | 29.44° C | 53% | 1021.1 hPa | 0 mm | - | - | - |
| 1788030037 | 29.44° C | 54% | 1021.1 hPa | 0 mm | - | - | - |
| 1788029722 | 29.44° C | 55% | 1021.2 hPa | 0 mm | - | - | - |
* Rain latest hour (hover to see other rain measurements)
** Current wind speed in m/s (hover to see current wind gust speed)